Location: Bannatyne
(13.0833°N, 59.5333°W)
Time: 06:14:53
(UTC+00:00)

Vanguard 3 - Pass Details

Date: 31 January 2020
Orbit: 508 x 3263 km, 33.3° (Epoch: 17 February)

Event Time Altitude Azimuth Distance (km) Brightness Sun altitude
Rises 19:01:19 0° 259° (WSW) 5,570 12.2 38.2°
Reaches altitude 10° 19:04:37 10° 263° (W) 4,882 12.1 37.5°
Maximum altitude 19:19:38 55° 338° (NNW) 3,464 10.7 34.5°
Drops below altitude 10° 19:39:11 10° 52° (NE) 6,131 11.2 30.4°
Sets 19:44:01 0° 57° (ENE) 7,012 11.4 29.4°
